Year,Month,Day,Hour,Minute,Value (Times are PST for temperature in C)
2008,06,23,00,00,12.80
2008,06,23,00,01,12.80
2008,06,23,00,02,12.80
2008,06,23,00,03,12.80
2008,06,23,00,04,12.80
2008,06,23,00,05,12.80
2008,06,23,00,06,12.70
2008,06,23,00,07,12.70
2008,06,23,00,08,12.70
2008,06,23,00,09,12.70
2008,06,23,00,10,12.70
2008,06,23,00,11,12.60
2008,06,23,00,12,12.60
2008,06,23,01,02,12.20
2008,06,23,01,03,12.20
2008,06,23,01,04,12.20
2008,06,23,01,05,12.20
2008,06,23,01,06,12.20
2008,06,23,01,07,12.20
2008,06,23,01,08,12.20
2008,06,23,01,09,12.20
2008,06,23,01,10,12.20
2008,06,23,01,11,12.20
2008,06,23,01,12,12.20
2008,06,23,01,13,12.20
2008,06,23,01,14,12.20
2008,06,23,01,15,12.20
2008,06,23,01,16,12.20
2008,06,23,01,17,12.20
2008,06,23,01,18,12.20
2008,06,23,01,19,12.20
2008,06,23,01,20,12.20
2008,06,23,01,21,12.20
2008,06,23,01,22,12.20
2008,06,23,01,23,12.20
2008,06,23,01,24,12.20
2008,06,23,01,25,12.20
2008,06,23,01,26,12.20
2008,06,23,01,27,12.20
2008,06,23,01,28,12.20
2008,06,23,01,29,12.20
2008,06,23,01,30,12.20
2008,06,23,01,31,12.20
2008,06,23,01,32,12.20
2008,06,23,01,33,12.20
2008,06,23,01,34,12.10
2008,06,23,01,35,12.10
2008,06,23,01,36,12.10
2008,06,23,01,37,12.10
2008,06,23,01,38,12.20
2008,06,23,01,39,12.20
2008,06,23,01,40,12.20
2008,06,23,01,41,12.20
2008,06,23,01,42,12.20
2008,06,23,01,43,12.20
2008,06,23,01,44,12.20
2008,06,23,01,45,12.20
2008,06,23,01,46,12.20
2008,06,23,01,47,12.20
2008,06,23,01,48,12.20
2008,06,23,01,49,12.10
2008,06,23,01,50,12.10
2008,06,23,01,51,12.10
2008,06,23,01,52,12.10
2008,06,23,01,53,12.10
2008,06,23,01,54,12.10
2008,06,23,01,55,12.10
2008,06,23,01,56,12.00
2008,06,23,01,57,12.00
2008,06,23,01,58,12.00
2008,06,23,01,59,12.00
2008,06,23,02,00,12.00
2008,06,23,02,01,12.00
2008,06,23,02,02,11.90
2008,06,23,02,03,11.90
2008,06,23,02,04,11.90
2008,06,23,02,05,11.90
2008,06,23,02,06,11.90
2008,06,23,02,07,11.90
2008,06,23,02,08,11.90
2008,06,23,02,09,11.90
2008,06,23,02,10,11.90
2008,06,23,02,11,11.90
2008,06,23,02,12,11.90
2008,06,23,02,13,11.80
2008,06,23,02,14,11.80
2008,06,23,02,15,11.80
2008,06,23,02,16,11.80
2008,06,23,02,17,11.80
2008,06,23,02,18,11.80
2008,06,23,02,19,11.80
2008,06,23,02,20,11.80
2008,06,23,02,21,11.80
2008,06,23,02,22,11.70
2008,06,23,02,23,11.70
2008,06,23,02,24,11.70
2008,06,23,02,25,11.70
2008,06,23,02,26,11.60
2008,06,23,02,27,11.60
2008,06,23,02,28,11.60
2008,06,23,02,29,11.60
2008,06,23,02,30,11.60
2008,06,23,02,31,11.60
2008,06,23,02,32,11.60
2008,06,23,02,33,11.60
2008,06,23,02,34,11.60
2008,06,23,02,35,11.60
2008,06,23,02,36,11.40
2008,06,23,02,37,11.40
2008,06,23,02,38,11.40
2008,06,23,02,39,11.40
2008,06,23,02,40,11.40
2008,06,23,02,41,11.30
2008,06,23,02,42,11.30
2008,06,23,02,43,11.30
2008,06,23,02,44,11.30
2008,06,23,02,45,11.20
2008,06,23,02,46,11.20
2008,06,23,02,47,11.20
2008,06,23,02,48,11.10
2008,06,23,02,49,11.10
2008,06,23,02,50,11.10
2008,06,23,02,51,11.10
2008,06,23,02,52,11.00
2008,06,23,02,53,10.90
2008,06,23,02,54,10.90
2008,06,23,02,55,10.90
2008,06,23,02,56,10.90
2008,06,23,02,57,10.90
2008,06,23,02,58,10.90
2008,06,23,02,59,10.90
2008,06,23,03,00,10.90
2008,06,23,03,01,10.90
2008,06,23,03,02,10.90
2008,06,23,03,03,10.90
2008,06,23,03,04,10.90
2008,06,23,03,05,10.80
2008,06,23,03,06,10.80
2008,06,23,03,07,10.80
2008,06,23,03,08,10.80
2008,06,23,03,09,10.80
2008,06,23,03,10,10.80
2008,06,23,03,11,10.70
2008,06,23,03,12,10.70
2008,06,23,03,13,10.70
2008,06,23,03,14,10.70
2008,06,23,03,15,10.70
2008,06,23,03,16,10.70
2008,06,23,03,17,10.70
2008,06,23,03,18,10.70
2008,06,23,03,19,10.70
2008,06,23,03,20,10.70
2008,06,23,03,21,10.70
2008,06,23,03,22,10.70
2008,06,23,03,23,10.60
2008,06,23,03,24,10.60
2008,06,23,03,25,10.60
2008,06,23,03,26,10.60
2008,06,23,03,27,10.60
2008,06,23,03,28,10.60
2008,06,23,03,29,10.60
2008,06,23,03,30,10.60
2008,06,23,03,31,10.60
2008,06,23,03,32,10.60
2008,06,23,03,33,10.50
2008,06,23,03,34,10.40
2008,06,23,03,35,10.40
2008,06,23,03,36,10.40
2008,06,23,03,37,10.40
2008,06,23,03,38,10.40
2008,06,23,03,39,10.40
2008,06,23,03,40,10.40
2008,06,23,03,41,10.40
2008,06,23,03,42,10.40
2008,06,23,03,43,10.40
2008,06,23,03,44,10.40
2008,06,23,03,45,10.40
2008,06,23,03,46,10.40
2008,06,23,03,47,10.40
2008,06,23,03,48,10.40
2008,06,23,03,49,10.40
2008,06,23,03,50,10.30
2008,06,23,03,51,10.30
2008,06,23,03,52,10.30
2008,06,23,03,53,10.30
2008,06,23,03,54,10.30
2008,06,23,03,55,10.30
2008,06,23,03,56,10.20
2008,06,23,03,57,10.20
2008,06,23,03,58,10.20
2008,06,23,03,59,10.20
2008,06,23,04,00,10.10
2008,06,23,04,01,10.10
2008,06,23,04,02,10.10
2008,06,23,04,03,10.10
2008,06,23,04,04,10.10
2008,06,23,04,05,10.10
2008,06,23,04,06,10.10
2008,06,23,04,07,10.00
2008,06,23,04,08,9.90
2008,06,23,04,09,9.90
2008,06,23,04,10,9.90
2008,06,23,04,11,9.90
2008,06,23,04,12,9.90
2008,06,23,04,13,9.90
2008,06,23,04,14,9.80
2008,06,23,04,15,9.80
2008,06,23,04,16,9.80
2008,06,23,04,17,9.70
2008,06,23,04,18,9.70
2008,06,23,04,19,9.70
2008,06,23,04,20,9.70
2008,06,23,04,21,9.70
2008,06,23,04,22,9.70
2008,06,23,04,23,9.70
2008,06,23,04,24,9.70
2008,06,23,04,25,9.70
2008,06,23,04,26,9.60
2008,06,23,04,27,9.60
2008,06,23,04,28,9.60
2008,06,23,04,29,9.60
2008,06,23,04,30,9.70
2008,06,23,04,31,9.70
2008,06,23,04,32,9.70
2008,06,23,04,33,9.70
2008,06,23,04,34,9.70
2008,06,23,04,35,9.70
2008,06,23,04,36,9.70
2008,06,23,04,37,9.70
2008,06,23,04,38,9.70
2008,06,23,04,39,9.70
2008,06,23,04,40,9.70
2008,06,23,04,41,9.70
2008,06,23,04,42,9.70
2008,06,23,04,43,9.80
2008,06,23,04,44,9.80
2008,06,23,04,45,9.80
2008,06,23,04,46,9.80
2008,06,23,04,47,9.80
2008,06,23,04,48,9.80
2008,06,23,04,49,9.70
2008,06,23,04,50,9.70
2008,06,23,04,51,9.70
2008,06,23,04,52,9.70
2008,06,23,04,53,9.70
2008,06,23,04,54,9.70
2008,06,23,04,55,9.70
2008,06,23,04,56,9.70
2008,06,23,04,57,9.70
2008,06,23,04,58,9.70
2008,06,23,04,59,9.70
2008,06,23,05,00,9.60
2008,06,23,05,01,9.60
2008,06,23,05,02,9.60
2008,06,23,05,03,9.60
2008,06,23,05,04,9.60
2008,06,23,05,05,9.50
2008,06,23,05,06,9.50
2008,06,23,05,07,9.50
2008,06,23,05,08,9.50
2008,06,23,05,09,9.50
2008,06,23,05,10,9.40
2008,06,23,05,11,9.40
2008,06,23,05,12,9.40
2008,06,23,05,13,9.40
2008,06,23,05,14,9.40
2008,06,23,05,15,9.40
2008,06,23,05,16,9.40
2008,06,23,05,17,9.40
2008,06,23,05,18,9.40
2008,06,23,05,19,9.30
2008,06,23,05,20,9.30
2008,06,23,05,21,9.30
2008,06,23,05,22,9.30
2008,06,23,05,23,9.30
2008,06,23,05,24,9.30
2008,06,23,05,25,9.30
2008,06,23,05,26,9.30
2008,06,23,05,27,9.30
2008,06,23,05,28,9.30
2008,06,23,05,29,9.30
2008,06,23,05,30,9.30
2008,06,23,05,31,9.30
2008,06,23,05,32,9.30
2008,06,23,05,33,9.20
2008,06,23,05,34,9.20
2008,06,23,05,35,9.20
2008,06,23,05,36,9.20
2008,06,23,05,37,9.20
2008,06,23,05,38,9.20
2008,06,23,05,39,9.20
2008,06,23,05,40,9.20
2008,06,23,05,41,9.20
2008,06,23,05,42,9.20
2008,06,23,05,43,9.20
2008,06,23,05,44,9.20
2008,06,23,05,45,9.20
2008,06,23,05,46,9.20
2008,06,23,05,47,9.30
2008,06,23,05,48,9.30
2008,06,23,05,49,9.40
2008,06,23,05,50,9.40
2008,06,23,05,51,9.50
2008,06,23,05,52,9.60
2008,06,23,05,53,9.60
2008,06,23,05,54,9.70
2008,06,23,05,55,9.70
2008,06,23,05,56,9.70
2008,06,23,05,57,9.80
2008,06,23,05,58,9.80
2008,06,23,05,59,9.90
2008,06,23,06,00,9.90
2008,06,23,06,01,10.00
2008,06,23,06,02,10.10
2008,06,23,06,03,10.10
2008,06,23,06,04,10.10
2008,06,23,06,05,10.20
2008,06,23,06,06,10.20
2008,06,23,06,07,10.30
2008,06,23,06,08,10.30
2008,06,23,06,09,10.40
2008,06,23,06,10,10.40
2008,06,23,06,11,10.40
2008,06,23,06,12,10.50
2008,06,23,06,13,10.60
2008,06,23,06,14,10.60
2008,06,23,06,15,10.60
2008,06,23,06,16,10.70
2008,06,23,06,17,10.70
2008,06,23,06,18,10.80
2008,06,23,06,19,10.80
2008,06,23,06,20,10.80
2008,06,23,06,21,10.90
2008,06,23,06,22,10.90
2008,06,23,06,23,10.90
2008,06,23,06,24,10.90
2008,06,23,06,25,10.90
2008,06,23,06,26,10.90
2008,06,23,06,27,10.90
2008,06,23,06,28,11.00
2008,06,23,06,29,11.10
2008,06,23,06,30,11.10
2008,06,23,06,31,11.10
2008,06,23,06,32,11.10
2008,06,23,06,33,11.10
2008,06,23,06,34,11.10
2008,06,23,06,35,11.10
2008,06,23,06,36,11.10
2008,06,23,06,37,11.10
2008,06,23,06,38,11.10
2008,06,23,06,39,11.10
2008,06,23,06,40,11.10
2008,06,23,06,41,11.10
2008,06,23,06,42,11.10
2008,06,23,06,43,11.20
2008,06,23,06,44,11.20
2008,06,23,06,45,11.20
2008,06,23,06,46,11.20
2008,06,23,06,47,11.20
2008,06,23,06,48,11.20
2008,06,23,06,49,11.30
2008,06,23,06,50,11.30
2008,06,23,06,51,11.30
2008,06,23,06,52,11.30
2008,06,23,06,53,11.40
2008,06,23,06,54,11.40
2008,06,23,06,55,11.40
2008,06,23,06,56,11.40
2008,06,23,06,57,11.40
2008,06,23,06,58,11.50
2008,06,23,06,59,11.60
2008,06,23,07,00,11.60
2008,06,23,07,01,11.60
2008,06,23,07,02,11.60
2008,06,23,07,03,11.60
2008,06,23,07,04,11.70
2008,06,23,07,05,11.70
2008,06,23,07,06,11.70
2008,06,23,07,07,11.80
2008,06,23,07,08,11.80
2008,06,23,07,09,11.80
2008,06,23,07,10,11.80
2008,06,23,07,11,11.80
2008,06,23,07,12,11.90
2008,06,23,07,13,11.90
2008,06,23,07,14,12.00
2008,06,23,07,15,12.00
2008,06,23,07,16,12.10
2008,06,23,07,17,12.10
2008,06,23,07,18,12.10
2008,06,23,07,19,12.20
2008,06,23,07,20,12.20
2008,06,23,07,21,12.30
2008,06,23,07,22,12.30
2008,06,23,07,23,12.30
2008,06,23,07,24,12.40
2008,06,23,07,25,12.50
2008,06,23,07,26,12.50
2008,06,23,07,27,12.60
2008,06,23,07,28,12.70
2008,06,23,07,29,12.70
2008,06,23,07,30,12.80
2008,06,23,07,31,12.80
2008,06,23,07,32,12.80
2008,06,23,07,33,12.80
2008,06,23,07,34,12.90
2008,06,23,07,35,12.90
2008,06,23,07,36,13.00
2008,06,23,07,37,13.00
2008,06,23,07,38,13.00
2008,06,23,07,39,13.10
2008,06,23,07,40,13.10
2008,06,23,07,41,13.10
2008,06,23,07,42,13.10
2008,06,23,07,43,13.10
2008,06,23,07,44,13.20
2008,06,23,07,45,13.20
2008,06,23,07,46,13.20
2008,06,23,07,47,13.20
2008,06,23,07,48,13.30
2008,06,23,07,49,13.30
2008,06,23,07,50,13.30
2008,06,23,07,51,13.30
2008,06,23,07,52,13.30
2008,06,23,07,53,13.30
2008,06,23,07,54,13.40
2008,06,23,07,55,13.40
2008,06,23,07,56,13.40
2008,06,23,07,57,13.50
2008,06,23,07,58,13.50
2008,06,23,07,59,13.50
2008,06,23,08,00,13.50
2008,06,23,08,01,13.60
2008,06,23,08,02,13.60
2008,06,23,08,03,13.60
2008,06,23,08,04,13.60
2008,06,23,08,05,13.70
2008,06,23,08,06,13.70
2008,06,23,08,07,13.70
2008,06,23,08,08,13.70
2008,06,23,08,09,13.70
2008,06,23,08,10,13.70
2008,06,23,08,11,13.70
2008,06,23,08,12,13.80
2008,06,23,08,13,13.80
2008,06,23,08,14,13.80
2008,06,23,08,15,13.80
2008,06,23,08,16,13.80
2008,06,23,08,17,13.80
2008,06,23,08,18,13.80
2008,06,23,08,19,13.80
2008,06,23,08,20,13.80
2008,06,23,08,21,13.80
2008,06,23,08,22,13.80
2008,06,23,08,23,13.80
2008,06,23,08,24,13.80
2008,06,23,08,25,13.80
2008,06,23,08,26,13.80
2008,06,23,08,27,13.80
2008,06,23,08,28,13.80
2008,06,23,08,29,13.80
2008,06,23,08,30,13.80
2008,06,23,08,31,13.80
2008,06,23,08,32,13.80
2008,06,23,08,33,13.80
2008,06,23,08,34,13.80
2008,06,23,08,35,13.80
2008,06,23,08,36,13.80
2008,06,23,08,37,13.80
2008,06,23,08,38,13.80
2008,06,23,08,39,13.80
2008,06,23,08,40,13.80
2008,06,23,08,41,13.80
2008,06,23,08,42,13.80
2008,06,23,08,43,13.80
2008,06,23,08,44,13.80
2008,06,23,08,45,13.80
2008,06,23,08,46,13.90
2008,06,23,08,47,13.90
2008,06,23,08,48,13.90
2008,06,23,08,49,13.90
2008,06,23,08,50,13.90
2008,06,23,08,51,13.90
2008,06,23,08,52,13.90
2008,06,23,08,53,13.90
2008,06,23,08,54,13.90
2008,06,23,08,55,13.90
2008,06,23,08,56,13.90
2008,06,23,08,57,14.00
2008,06,23,08,58,14.00
2008,06,23,08,59,14.00
2008,06,23,09,00,14.00
2008,06,23,09,01,14.00
2008,06,23,09,02,14.10
2008,06,23,09,03,14.10
2008,06,23,09,04,14.10
2008,06,23,09,05,14.20
2008,06,23,09,06,14.20
2008,06,23,09,07,14.20
2008,06,23,09,08,14.20
2008,06,23,09,09,14.20
2008,06,23,09,10,14.20
2008,06,23,09,11,14.20
2008,06,23,09,12,14.20
2008,06,23,09,13,14.20
2008,06,23,09,14,14.20
2008,06,23,09,15,14.20
2008,06,23,09,16,14.20
2008,06,23,09,17,14.20
2008,06,23,09,18,14.20
2008,06,23,09,19,14.20
2008,06,23,09,20,14.20
2008,06,23,09,21,14.20
2008,06,23,09,22,14.20
2008,06,23,09,23,14.30
2008,06,23,09,24,14.40
2008,06,23,09,25,14.40
2008,06,23,09,26,14.50
2008,06,23,09,27,14.50
2008,06,23,09,28,14.60
2008,06,23,09,29,14.60
2008,06,23,09,30,14.70
2008,06,23,09,31,14.80
2008,06,23,09,32,14.80
2008,06,23,09,33,14.80
2008,06,23,09,34,14.80
2008,06,23,09,35,14.80
2008,06,23,09,36,14.80
2008,06,23,09,37,14.90
2008,06,23,09,38,14.90
2008,06,23,09,39,14.90
2008,06,23,09,40,14.90
2008,06,23,09,41,14.90
2008,06,23,09,42,14.90
2008,06,23,09,43,14.90
2008,06,23,09,44,15.00
2008,06,23,09,45,15.00
2008,06,23,09,46,15.00
2008,06,23,09,47,15.10
2008,06,23,09,48,15.10
2008,06,23,09,49,15.20
2008,06,23,09,50,15.20
2008,06,23,09,51,15.20
2008,06,23,09,52,15.30
2008,06,23,09,53,15.30
2008,06,23,09,54,15.30
2008,06,23,09,55,15.40
2008,06,23,09,56,15.50
2008,06,23,09,57,15.50
2008,06,23,09,58,15.60
2008,06,23,09,59,15.60
2008,06,23,10,00,15.70
2008,06,23,10,01,15.80
2008,06,23,10,02,15.90
2008,06,23,10,03,16.00
2008,06,23,10,04,16.10
2008,06,23,10,05,16.10
2008,06,23,10,06,16.10
2008,06,23,10,07,16.10
2008,06,23,10,08,16.20
2008,06,23,10,09,16.20
2008,06,23,10,10,16.20
2008,06,23,10,11,16.30
2008,06,23,10,12,16.30
2008,06,23,10,13,16.30
2008,06,23,10,14,16.40
2008,06,23,10,15,16.40
2008,06,23,10,16,16.50
2008,06,23,10,17,16.70
2008,06,23,10,18,16.70
2008,06,23,10,19,16.70
2008,06,23,10,20,16.70
2008,06,23,10,21,16.60
2008,06,23,10,22,16.50
2008,06,23,10,23,16.40
2008,06,23,10,24,16.30
2008,06,23,10,25,16.30
2008,06,23,10,26,16.30
2008,06,23,10,27,16.30
2008,06,23,10,28,16.30
2008,06,23,10,29,16.30
2008,06,23,10,30,16.30
2008,06,23,10,31,16.30
2008,06,23,10,32,16.30
2008,06,23,10,33,16.40
2008,06,23,10,34,16.40
2008,06,23,10,35,16.40
2008,06,23,10,36,16.50
2008,06,23,10,37,16.60
2008,06,23,10,38,16.70
2008,06,23,10,39,16.70
2008,06,23,10,40,16.80
2008,06,23,10,41,16.90
2008,06,23,10,42,16.90
2008,06,23,10,43,16.90
2008,06,23,10,44,16.80
2008,06,23,10,45,16.80
2008,06,23,10,46,16.80
2008,06,23,10,47,16.70
2008,06,23,10,48,16.70
2008,06,23,10,49,16.70
2008,06,23,10,50,16.70
2008,06,23,10,51,16.80
2008,06,23,10,52,16.80
2008,06,23,10,53,16.90
2008,06,23,10,54,17.00
2008,06,23,10,55,17.00
2008,06,23,10,56,17.10
2008,06,23,10,57,17.20
2008,06,23,10,58,17.20
2008,06,23,10,59,17.10
2008,06,23,11,00,17.10
2008,06,23,11,01,17.00
2008,06,23,11,02,17.00
2008,06,23,11,03,17.00
2008,06,23,11,04,17.00
2008,06,23,11,05,17.00
2008,06,23,11,06,17.10
2008,06,23,11,07,17.10
2008,06,23,11,08,17.10
2008,06,23,11,09,17.10
2008,06,23,11,10,17.10
2008,06,23,11,11,17.10
2008,06,23,11,12,17.20
2008,06,23,11,13,17.30
2008,06,23,11,14,17.30
2008,06,23,11,15,17.30
2008,06,23,11,16,17.30
2008,06,23,11,17,17.30
2008,06,23,11,18,17.30
2008,06,23,11,19,17.30
2008,06,23,11,20,17.30
2008,06,23,11,21,17.30
2008,06,23,11,22,17.20
2008,06,23,11,23,17.20
2008,06,23,11,24,17.20
2008,06,23,11,25,17.10
2008,06,23,11,26,17.20
2008,06,23,11,27,17.20
2008,06,23,11,28,17.20
2008,06,23,11,29,17.30
2008,06,23,11,30,17.30
2008,06,23,11,31,17.40
2008,06,23,11,32,17.40
2008,06,23,11,33,17.50
2008,06,23,11,34,17.50
2008,06,23,11,35,17.50
2008,06,23,11,36,17.40
2008,06,23,11,37,17.30
2008,06,23,11,38,17.30
2008,06,23,11,39,17.30
2008,06,23,11,40,17.30
2008,06,23,11,41,17.30
2008,06,23,11,42,17.30
2008,06,23,11,43,17.30
2008,06,23,11,44,17.30
2008,06,23,11,45,17.20
2008,06,23,11,46,17.10
2008,06,23,11,47,17.00
2008,06,23,11,48,16.90
2008,06,23,11,49,16.80
2008,06,23,11,50,16.80
2008,06,23,11,51,16.80
2008,06,23,11,52,16.80
2008,06,23,11,53,16.90
2008,06,23,11,54,16.90
2008,06,23,11,55,17.00
2008,06,23,11,56,17.00
2008,06,23,11,57,16.90
2008,06,23,11,58,16.90
2008,06,23,11,59,16.90
2008,06,23,12,00,16.90
2008,06,23,12,01,16.90
2008,06,23,12,02,16.90
2008,06,23,12,03,16.90
2008,06,23,12,04,16.80
2008,06,23,12,05,16.90
2008,06,23,12,06,16.90
2008,06,23,12,07,16.90
2008,06,23,12,08,16.90
2008,06,23,12,09,16.90
2008,06,23,12,10,16.90
2008,06,23,12,11,16.90
2008,06,23,12,12,16.90
2008,06,23,12,13,16.90
2008,06,23,12,14,16.80
2008,06,23,12,15,16.80
2008,06,23,12,16,16.80
2008,06,23,12,17,16.70
2008,06,23,12,18,16.70
2008,06,23,12,19,16.70
2008,06,23,12,20,16.70
2008,06,23,12,21,16.70
2008,06,23,12,22,16.60
2008,06,23,12,23,16.70
2008,06,23,12,24,16.70
2008,06,23,12,25,16.80
2008,06,23,12,26,16.80
2008,06,23,12,27,16.80
2008,06,23,12,28,16.80
2008,06,23,12,29,16.90
2008,06,23,12,30,16.90
2008,06,23,12,31,17.00
2008,06,23,12,32,17.00
2008,06,23,12,33,17.00
2008,06,23,12,34,17.00
2008,06,23,12,35,17.10
2008,06,23,12,36,17.20
2008,06,23,12,37,17.30
2008,06,23,12,38,17.30
2008,06,23,12,39,17.30
2008,06,23,12,40,17.30
2008,06,23,12,41,17.40
2008,06,23,12,42,17.40
2008,06,23,12,43,17.50
2008,06,23,12,44,17.50
2008,06,23,12,45,17.50
2008,06,23,12,46,17.50
2008,06,23,12,47,17.60
2008,06,23,12,48,17.60
2008,06,23,12,49,17.70
2008,06,23,12,50,17.80
2008,06,23,12,51,17.90
2008,06,23,12,52,18.00
2008,06,23,12,53,18.10
2008,06,23,12,54,18.10
2008,06,23,12,55,18.10
2008,06,23,12,56,18.00
2008,06,23,12,57,17.90
2008,06,23,12,58,17.80
2008,06,23,12,59,17.70
2008,06,23,13,00,17.70
2008,06,23,13,01,17.70
2008,06,23,13,02,17.70
2008,06,23,13,03,17.70
2008,06,23,13,04,17.70
2008,06,23,13,05,17.70
2008,06,23,13,06,17.70
2008,06,23,13,07,17.70
2008,06,23,13,08,17.70
2008,06,23,13,09,17.80
2008,06,23,13,10,17.80
2008,06,23,13,11,17.90
2008,06,23,13,12,17.90
2008,06,23,13,13,17.90
2008,06,23,13,14,18.00
2008,06,23,13,15,18.10
2008,06,23,13,16,18.10
2008,06,23,13,17,18.20
2008,06,23,13,18,18.20
2008,06,23,13,19,18.20
2008,06,23,13,20,18.30
2008,06,23,13,21,18.40
2008,06,23,13,22,18.50
2008,06,23,13,23,18.40
2008,06,23,13,24,18.40
2008,06,23,13,25,18.30
2008,06,23,13,26,18.30
2008,06,23,13,27,18.40
2008,06,23,13,28,18.40
2008,06,23,13,29,18.40
2008,06,23,13,30,18.30
2008,06,23,13,31,18.30
2008,06,23,13,32,18.20
2008,06,23,13,33,18.10
2008,06,23,13,34,18.10
2008,06,23,13,35,18.10
2008,06,23,13,36,18.20
2008,06,23,13,37,18.20
2008,06,23,13,38,18.20
2008,06,23,13,39,18.20
2008,06,23,13,40,18.30
2008,06,23,13,41,18.30
2008,06,23,13,42,18.40
2008,06,23,13,43,18.40
2008,06,23,13,44,18.40
2008,06,23,13,45,18.40
2008,06,23,13,46,18.30
2008,06,23,13,47,18.30
2008,06,23,13,48,18.30
2008,06,23,13,49,18.30
2008,06,23,13,50,18.20
2008,06,23,13,51,18.20
2008,06,23,13,52,18.20
2008,06,23,13,53,18.10
2008,06,23,13,54,18.20
2008,06,23,13,55,18.20
2008,06,23,13,56,18.20
2008,06,23,13,57,18.20
2008,06,23,13,58,18.20
2008,06,23,13,59,18.30
2008,06,23,14,00,18.30
2008,06,23,14,01,18.50
2008,06,23,14,02,18.50
2008,06,23,14,03,18.60
2008,06,23,14,04,18.60
2008,06,23,14,05,18.50
2008,06,23,14,06,18.40
2008,06,23,14,07,18.40
2008,06,23,14,08,18.30
2008,06,23,14,09,18.30
2008,06,23,14,10,18.30
2008,06,23,14,11,18.30
2008,06,23,14,12,18.30
2008,06,23,14,13,18.40
2008,06,23,14,14,18.50
2008,06,23,14,15,18.50
2008,06,23,14,16,18.60
2008,06,23,14,17,18.60
2008,06,23,14,18,18.60
2008,06,23,14,19,18.60
2008,06,23,14,20,18.70
2008,06,23,14,21,18.70
2008,06,23,14,22,18.80
2008,06,23,14,23,18.90
2008,06,23,14,24,19.00
2008,06,23,14,25,19.10
2008,06,23,14,26,19.10
2008,06,23,14,27,19.10
2008,06,23,14,28,19.10
2008,06,23,14,29,19.10
2008,06,23,14,30,19.20
2008,06,23,14,31,19.30
2008,06,23,14,32,19.40
2008,06,23,14,33,19.40
2008,06,23,14,34,19.40
2008,06,23,14,35,19.40
2008,06,23,14,36,19.40
2008,06,23,14,37,19.40
2008,06,23,14,38,19.50
2008,06,23,14,39,19.40
2008,06,23,14,40,19.30
2008,06,23,14,41,19.10
2008,06,23,14,42,19.20
2008,06,23,14,43,19.20
2008,06,23,14,44,19.20
2008,06,23,14,45,19.20
2008,06,23,14,46,19.10
2008,06,23,14,47,19.00
2008,06,23,14,48,18.80
2008,06,23,14,49,18.60
2008,06,23,14,50,18.60
2008,06,23,14,51,18.60
2008,06,23,14,52,18.60
2008,06,23,14,53,18.70
2008,06,23,14,54,18.70
2008,06,23,14,55,18.90
2008,06,23,14,56,18.90
2008,06,23,14,57,18.70
2008,06,23,14,58,18.60
2008,06,23,14,59,18.50
2008,06,23,15,00,18.60
2008,06,23,15,01,18.70
2008,06,23,15,02,18.80
2008,06,23,15,03,18.90
2008,06,23,15,04,19.00
2008,06,23,15,05,19.10
2008,06,23,15,06,19.10
2008,06,23,15,07,19.10
2008,06,23,15,08,19.20
2008,06,23,15,09,19.30
2008,06,23,15,10,19.40
2008,06,23,15,11,19.50
2008,06,23,15,12,19.60
2008,06,23,15,13,19.80
2008,06,23,15,14,19.90
2008,06,23,15,15,19.80
2008,06,23,15,16,19.90
2008,06,23,15,17,19.90
2008,06,23,15,18,20.00
2008,06,23,15,19,20.10
2008,06,23,15,20,20.00
2008,06,23,15,21,19.90
2008,06,23,15,22,20.00
2008,06,23,15,23,20.10
2008,06,23,15,24,20.00
2008,06,23,15,25,19.90
2008,06,23,15,26,20.00
2008,06,23,15,27,20.00
2008,06,23,15,28,19.90
2008,06,23,15,29,19.80
2008,06,23,15,30,19.70
2008,06,23,15,31,19.70
2008,06,23,15,32,19.80
2008,06,23,15,33,19.90
2008,06,23,15,34,19.90
2008,06,23,15,35,19.90
2008,06,23,15,36,19.90
2008,06,23,15,37,19.90
2008,06,23,15,38,19.80
2008,06,23,15,39,19.80
2008,06,23,15,40,19.90
2008,06,23,15,41,19.90
2008,06,23,15,42,19.90
2008,06,23,15,43,20.00
2008,06,23,15,44,20.10
2008,06,23,15,45,20.10
2008,06,23,15,46,20.00
2008,06,23,15,47,19.90
2008,06,23,15,48,19.90
2008,06,23,15,49,19.90
2008,06,23,15,50,20.00
2008,06,23,15,51,20.10
2008,06,23,15,52,20.00
2008,06,23,15,53,20.00
2008,06,23,15,54,20.10
2008,06,23,15,55,20.10
2008,06,23,15,56,20.10
2008,06,23,15,57,20.10
2008,06,23,15,58,20.10
2008,06,23,15,59,20.20
2008,06,23,16,00,20.20
2008,06,23,16,01,20.20
2008,06,23,16,02,20.10
2008,06,23,16,03,20.10
2008,06,23,16,04,20.10
2008,06,23,16,05,20.20
2008,06,23,16,06,20.20
2008,06,23,16,07,20.20
2008,06,23,16,08,20.20
2008,06,23,16,09,20.20
2008,06,23,16,10,20.20
2008,06,23,16,11,20.20
2008,06,23,16,12,20.20
2008,06,23,16,13,20.30
2008,06,23,16,14,20.40
2008,06,23,16,15,20.40
2008,06,23,16,16,20.50
2008,06,23,16,17,20.50
2008,06,23,16,18,20.60
2008,06,23,16,19,20.70
2008,06,23,16,20,20.80
2008,06,23,16,21,20.80
2008,06,23,16,22,20.80
2008,06,23,16,23,20.80
2008,06,23,16,24,20.80
2008,06,23,16,25,20.70
2008,06,23,16,26,20.60
2008,06,23,16,27,20.60
2008,06,23,16,28,20.70
2008,06,23,16,29,20.70
2008,06,23,16,30,20.60
2008,06,23,16,31,20.60
2008,06,23,16,32,20.60
2008,06,23,16,33,20.60
2008,06,23,16,34,20.70
2008,06,23,16,35,20.80
2008,06,23,16,36,20.80
2008,06,23,16,37,20.80
2008,06,23,16,38,20.80
2008,06,23,16,39,20.80
2008,06,23,16,40,20.70
2008,06,23,16,41,20.70
2008,06,23,16,42,20.50
2008,06,23,16,43,20.50
2008,06,23,16,44,20.40
2008,06,23,16,45,20.30
2008,06,23,16,46,20.20
2008,06,23,16,47,20.20
2008,06,23,16,48,20.20
2008,06,23,16,49,20.10
2008,06,23,16,50,20.10
2008,06,23,16,51,20.00
2008,06,23,16,52,19.90
2008,06,23,16,53,19.80
2008,06,23,16,54,19.80
2008,06,23,16,55,19.70
2008,06,23,16,56,19.60
2008,06,23,16,57,19.50
2008,06,23,16,58,19.40
2008,06,23,16,59,19.40
2008,06,23,17,00,19.30
2008,06,23,17,01,19.20
2008,06,23,17,02,19.10
2008,06,23,17,03,19.10
2008,06,23,17,04,19.00
2008,06,23,17,05,18.90
2008,06,23,17,06,18.90
2008,06,23,17,07,18.90
2008,06,23,17,08,18.80
2008,06,23,17,09,18.80
2008,06,23,17,10,18.70
2008,06,23,17,11,18.60
2008,06,23,17,12,18.60
2008,06,23,17,13,18.60
2008,06,23,17,14,18.50
2008,06,23,17,15,18.50
2008,06,23,17,16,18.50
2008,06,23,17,17,18.50
2008,06,23,17,18,18.50
2008,06,23,17,19,18.40
2008,06,23,17,20,18.40
2008,06,23,17,21,18.40
2008,06,23,17,22,18.40
2008,06,23,17,23,18.40
2008,06,23,17,24,18.40
2008,06,23,17,25,18.40
2008,06,23,17,26,18.40
2008,06,23,17,27,18.40
2008,06,23,17,28,18.30
2008,06,23,17,29,18.30
2008,06,23,17,30,18.30
2008,06,23,17,31,18.20
2008,06,23,17,32,18.20
2008,06,23,17,33,18.10
2008,06,23,17,34,18.10
2008,06,23,17,35,18.10
2008,06,23,17,36,18.10
2008,06,23,17,37,18.10
2008,06,23,17,38,18.10
2008,06,23,17,39,18.00
2008,06,23,17,40,17.90
2008,06,23,17,41,17.90
2008,06,23,17,42,17.90
2008,06,23,17,43,17.90
2008,06,23,17,44,17.90
2008,06,23,17,45,17.90
2008,06,23,17,46,17.80
2008,06,23,17,47,17.80
2008,06,23,17,48,17.80
2008,06,23,17,49,17.70
2008,06,23,17,50,17.70
2008,06,23,17,51,17.60
2008,06,23,17,52,17.60
2008,06,23,17,53,17.50
2008,06,23,17,54,17.50
2008,06,23,17,55,17.50
2008,06,23,17,56,17.50
2008,06,23,17,57,17.50
2008,06,23,17,58,17.60
2008,06,23,17,59,17.60
2008,06,23,18,00,17.60
2008,06,23,18,01,17.60
2008,06,23,18,02,17.60
2008,06,23,18,03,17.60
2008,06,23,18,04,17.60
2008,06,23,18,05,17.60
2008,06,23,18,06,17.60
2008,06,23,18,07,17.60
2008,06,23,18,08,17.50
2008,06,23,18,09,17.50
2008,06,23,18,10,17.50
2008,06,23,18,11,17.50
2008,06,23,18,12,17.50
2008,06,23,18,13,17.50